Location: Rathdrum
(47.8130°N, 116.8960°W)
Time: 20:54:00
(UTC-07:00)

Amateur Radio Satellites - All Passes

Search period start: 19 September 2014 20:24
Search period end: 20 September 2014 20:24
Location: Rathdrum, 47.8130°N, 116.8960°W

Satellite Date Start Highest point End Downlink Frequencies (MHz)
Time Altitude Azimuth
STRAND 1 19 Sep 20:37:53 20:42:41 41° 293° (WNW) 20:47:29 ?
Sapphire 19 Sep 20:47:13 20:52:37 61° 52° (NE) 20:57:59 437.095 MHz 1200 baud AX-25 AFSK
PCSat 19 Sep 21:14:16 21:19:44 84° 238° (WSW) 21:25:09 145.825 MHz
KITSAT 1 19 Sep 21:23:06 21:30:52 48° 319° (NW) 21:38:39 435.175 FM
FUNcube-1 19 Sep 21:26:34 21:30:29 31° 66° (ENE) 21:34:30 145.950 - 145.970 MHz USB
Oscar 11 19 Sep 21:35:44 21:40:06 86° 75° (ENE) 21:44:31 145.825 FM, Beacon 2401.500 USB
HO-68 19 Sep 21:46:51 21:53:28 40° 263° (W) 22:00:09 435.675 MHz FM
UKube-1 19 Sep 21:52:59 21:57:08 45° 261° (W) 22:01:20 145.840 MHz, 145.915 MHz
SO-50 19 Sep 22:19:26 22:23:37 39° 119° (ESE) 22:27:54 436.795 FM
Sapphire 19 Sep 22:31:19 22:35:39 25° 251° (WSW) 22:39:59 437.095 MHz 1200 baud AX-25 AFSK
PCSat 19 Sep 22:59:34 23:02:18 14° 257° (WSW) 23:05:02 145.825 MHz
FUNcube-1 19 Sep 23:02:54 23:06:51 31° 265° (W) 23:10:55 145.950 - 145.970 MHz USB
Oscar 11 19 Sep 23:15:42 23:16:55 11° 273° (W) 23:18:07 145.825 FM, Beacon 2401.500 USB
KITSAT 1 19 Sep 23:22:18 23:28:29 23° 346° (NNW) 23:34:41 435.175 FM
Oscar 10/S400 19 Sep 23:24:48 00:08:05 46° 201° (SSW) 06:47:29 145.825 - 145.975 CW/USB, Beacon 145.810 USB
Saudisat 1A 19 Sep 23:29:46 23:32:18 15° 25° (NNE) 23:34:51 436.775 MHz
UOSAT-12 19 Sep 23:55:49 23:59:56 33° 117° (ESE) 00:04:08 437.025 FM, 437.400 FM
SO-50 20 Sep 00:00:02 00:04:14 36° 319° (NW) 00:08:32 436.795 FM
Saudisat 1A 20 Sep 01:08:31 01:12:52 53° 47° (NE) 01:17:11 436.775 MHz
KITSAT 1 20 Sep 01:20:47 01:27:05 24° 16° (NNE) 01:33:22 435.175 FM
ITAMSAT 1 20 Sep 01:33:33 01:34:27 10° 85° (E) 01:35:21 435.822 SSB
UOSAT-12 20 Sep 01:35:33 01:40:00 43° 317° (NW) 01:44:32 437.025 FM, 437.400 FM
Uribyol 2 20 Sep 01:36:35 01:38:42 12° 86° (E) 01:40:48 436.500 FM
SO-50 20 Sep 01:44:01 01:46:10 13° 343° (NNW) 01:48:19 436.795 FM
Oscar 19 20 Sep 01:46:45 01:51:22 32° 95° (E) 01:55:56 437.125 CW, 437.150 USB
AO-27 20 Sep 02:06:08 02:10:08 22° 92° (E) 02:14:08 436.795 MHz FM
OPAL 20 Sep 02:24:24 02:24:41 10° 47° (NE) 02:24:58 ?
Oscar 16 20 Sep 02:25:20 02:30:32 70° 103° (ESE) 02:35:40 437.025 USB, Beacon 2401.1428
RS-15 20 Sep 02:28:21 02:34:13 16° 96° (E) 02:40:02 29.354 - 29.394 USB, Beacon 29.352 USB
JAS-1B 20 Sep 02:33:42 02:39:11 41° 97° (E) 02:44:32 435.800 - 435.900 CW/SSB
AO-Echo 20 Sep 02:34:56 02:39:33 43° 99° (E) 02:44:16 ?
Saudisat 1A 20 Sep 02:48:40 02:52:09 23° 245° (WSW) 02:55:37 436.775 MHz
Gurwin Techsat 1B 20 Sep 03:00:44 03:05:31 33° 95° (E) 03:10:15 435.225 FM
ITAMSAT 1 20 Sep 03:09:37 03:14:52 74° 103° (ESE) 03:20:04 435.822 SSB
Uribyol 2 20 Sep 03:13:43 03:18:59 84° 105° (ESE) 03:24:13 436.500 FM
KITSAT 1 20 Sep 03:16:42 03:24:35 51° 43° (NE) 03:32:24 435.175 FM
UOSAT-12 20 Sep 03:18:48 03:21:23 14° 339° (NNW) 03:23:58 437.025 FM, 437.400 FM
ISS 20 Sep 03:22:18 03:25:33 52° 149° (SSE) 03:28:49 145.800 FM
Oscar 19 20 Sep 03:26:00 03:30:47 39° 294° (WNW) 03:35:32 437.125 CW, 437.150 USB
AO-7 20 Sep 03:26:26 03:30:39 15° 84° (E) 03:34:51 29.400 - 29.500 MHz
SO-50 20 Sep 03:27:44 03:28:51 11° 8° (N) 03:29:58 436.795 FM
TMSAT-1 20 Sep 03:37:15 03:42:26 50° 99° (E) 03:47:34 436.925 FM
AO-27 20 Sep 03:44:54 03:50:01 57° 290° (WNW) 03:55:07 436.795 MHz FM
Uosat F 20 Sep 03:47:51 03:49:24 11° 86° (E) 03:50:58 435.120 FM
OPAL 20 Sep 03:57:25 04:02:26 52° 66° (ENE) 04:07:30 ?
Oscar 16 20 Sep 04:05:41 04:09:22 20° 302° (WNW) 04:13:02 437.025 USB, Beacon 2401.1428
AO-Echo 20 Sep 04:14:09 04:18:10 27° 296° (WNW) 04:22:16 ?
JAS-1B 20 Sep 04:24:42 04:29:50 32° 299° (WNW) 04:34:47 435.800 - 435.900 CW/SSB
RS-15 20 Sep 04:33:25 04:44:15 67° 119° (ESE) 04:55:00 29.354 - 29.394 USB, Beacon 29.352 USB
Gurwin Techsat 1B 20 Sep 04:40:37 04:45:33 40° 294° (WNW) 04:50:27 435.225 FM
STRAND 1 20 Sep 04:43:48 04:44:54 11° 51° (NE) 04:45:59 ?
ITAMSAT 1 20 Sep 04:50:12 04:53:49 19° 302° (WNW) 04:57:25 435.822 SSB
Uribyol 2 20 Sep 04:54:29 04:57:48 17° 304° (WNW) 05:01:07 436.500 FM
ISS 20 Sep 04:59:04 05:02:19 48° 348° (NNW) 05:05:35 145.800 FM
UOSAT-12 20 Sep 05:02:45 05:03:36 10° 4° (N) 05:04:27 437.025 FM, 437.400 FM
SO-50 20 Sep 05:07:25 05:11:10 22° 32° (NNE) 05:14:58 436.795 FM
KITSAT 1 20 Sep 05:12:20 05:20:01 49° 246° (WSW) 05:27:39 435.175 FM
AO-7 20 Sep 05:16:45 05:25:02 68° 105° (ESE) 05:33:16 29.400 - 29.500 MHz
TMSAT-1 20 Sep 05:17:41 05:22:05 27° 298° (WNW) 05:26:29 436.925 FM
Uosat F 20 Sep 05:23:56 05:29:00 82° 105° (ESE) 05:34:02 435.120 FM
AO-27 20 Sep 05:27:33 05:28:29 10° 310° (NW) 05:29:24 436.795 MHz FM
OPAL 20 Sep 05:37:21 05:41:35 25° 265° (W) 05:45:52 ?
Hamsat 20 Sep 06:09:05 06:12:53 30° 95° (E) 06:16:37 145.90 MHz
JAS-2 20 Sep 06:13:46 06:19:28 45° 99° (E) 06:25:51 435.800 - 435.900 CW/SSB, 435.910 FM
STRAND 1 20 Sep 06:18:05 06:23:04 60° 71° (ENE) 06:28:07 ?
ISS 20 Sep 06:36:11 06:39:25 45° 9° (N) 06:42:38 145.800 FM
UOSAT-12 20 Sep 06:42:10 06:45:37 20° 29° (NNE) 06:49:03 437.025 FM, 437.400 FM
RS-15 20 Sep 06:46:36 06:57:09 50° 326° (NW) 07:07:46 29.354 - 29.394 USB, Beacon 29.352 USB
SO-50 20 Sep 06:47:32 06:52:21 87° 233° (SW) 06:57:13 436.795 FM
Uosat F 20 Sep 07:04:02 07:07:10 17° 303° (WNW) 07:10:18 435.120 FM
MaSat-1 20 Sep 07:05:14 07:06:55 12° 100° (E) 07:08:36 437.345 MHz
AO-7 20 Sep 07:10:07 07:17:20 35° 307° (NW) 07:24:33 29.400 - 29.500 MHz
SO-67 20 Sep 07:14:05 07:16:45 20° 93° (E) 07:19:23 435.3500 MHz FM
Hamsat 20 Sep 07:45:06 07:48:48 29° 293° (WNW) 07:52:26 145.90 MHz
STRAND 1 20 Sep 07:58:59 08:02:41 20° 269° (W) 08:06:25 ?
JAS-2 20 Sep 07:59:11 08:04:30 37° 295° (WNW) 08:10:24 435.800 - 435.900 CW/SSB, 435.910 FM
ISS 20 Sep 08:12:57 08:16:16 67° 208° (SSW) 08:19:34 145.800 FM
UOSAT-12 20 Sep 08:21:48 08:26:34 76° 50° (NE) 08:31:15 437.025 FM, 437.400 FM
SO-50 20 Sep 08:29:48 08:32:14 14° 251° (WSW) 08:34:42 436.795 FM
MaSat-1 20 Sep 08:37:53 08:42:55 76° 117° (ESE) 08:47:47 437.345 MHz
SO-67 20 Sep 08:46:47 08:49:49 28° 291° (WNW) 08:52:49 435.3500 MHz FM
RS-15 20 Sep 09:03:11 09:12:44 32° 359° (N) 09:22:26 29.354 - 29.394 USB, Beacon 29.352 USB
AO-7 20 Sep 09:05:38 09:07:41 11° 331° (NNW) 09:09:43 29.400 - 29.500 MHz
HO-68 20 Sep 09:10:09 09:16:38 35° 96° (E) 09:23:04 435.675 MHz FM
Oscar 11 20 Sep 09:21:50 09:23:44 13° 88° (E) 09:25:37 145.825 FM, Beacon 2401.500 USB
UKube-1 20 Sep 09:38:05 09:41:35 23° 94° (E) 09:45:05 145.840 MHz, 145.915 MHz
ISS 20 Sep 09:50:55 09:52:27 13° 226° (SW) 09:53:59 145.800 FM
UOSAT-12 20 Sep 10:03:06 10:06:10 17° 249° (WSW) 10:09:11 437.025 FM, 437.400 FM
MaSat-1 20 Sep 10:16:18 10:20:09 22° 316° (NW) 10:23:52 437.345 MHz
FUNcube-1 20 Sep 10:48:03 10:52:27 41° 97° (E) 10:56:47 145.950 - 145.970 MHz USB
Oscar 11 20 Sep 10:56:05 11:00:28 75° 286° (WNW) 11:04:47 145.825 FM, Beacon 2401.500 USB
HO-68 20 Sep 10:57:40 11:04:37 55° 295° (WNW) 11:11:33 435.675 MHz FM
UKube-1 20 Sep 11:13:51 11:17:56 40° 292° (WNW) 11:22:01 145.840 MHz, 145.915 MHz
RS-15 20 Sep 11:17:56 11:28:28 47° 32° (NNE) 11:39:18 29.354 - 29.394 USB, Beacon 29.352 USB
Oscar 19 20 Sep 11:31:50 11:33:34 12° 52° (NE) 11:35:18 437.125 CW, 437.150 USB
Sapphire 20 Sep 11:33:21 11:37:45 26° 109° (ESE) 11:42:11 437.095 MHz 1200 baud AX-25 AFSK
JAS-1B 20 Sep 11:35:40 11:39:13 14° 49° (NE) 11:42:33 435.800 - 435.900 CW/SSB
PCSat 20 Sep 11:59:22 12:04:28 44° 115° (ESE) 12:09:37 145.825 MHz
Oscar 16 20 Sep 12:08:02 12:12:02 23° 60° (ENE) 12:16:02 437.025 USB, Beacon 2401.1428
AO-Echo 20 Sep 12:16:23 12:18:10 12° 55° (NE) 12:19:58 ?
FUNcube-1 20 Sep 12:24:49 12:28:39 26° 296° (WNW) 12:32:27 145.950 - 145.970 MHz USB
Oscar 11 20 Sep 12:35:11 12:35:51 10° 304° (NW) 12:36:32 145.825 FM, Beacon 2401.500 USB
AO-7 20 Sep 12:43:53 12:45:14 11° 28° (NNE) 12:46:35 29.400 - 29.500 MHz
HO-68 20 Sep 12:47:18 12:50:50 15° 317° (NW) 12:54:23 435.675 MHz FM
Gurwin Techsat 1B 20 Sep 12:49:04 12:51:22 13° 53° (NE) 12:53:39 435.225 FM
ITAMSAT 1 20 Sep 12:53:09 12:57:17 25° 61° (ENE) 13:01:26 435.822 SSB
Uribyol 2 20 Sep 12:56:52 13:01:11 28° 62° (ENE) 13:05:33 436.500 FM
Oscar 19 20 Sep 13:06:48 13:11:56 64° 71° (ENE) 13:17:06 437.125 CW, 437.150 USB
Sapphire 20 Sep 13:15:30 13:20:50 58° 309° (NW) 13:26:12 437.095 MHz 1200 baud AX-25 AFSK
JAS-1B 20 Sep 13:20:39 13:28:43 58° 68° (ENE) 13:35:28 435.800 - 435.900 CW/SSB
TMSAT-1 20 Sep 13:23:58 13:27:30 18° 57° (ENE) 13:31:02 436.925 FM
AO-27 20 Sep 13:27:24 13:32:20 46° 68° (ENE) 13:37:17 436.795 MHz FM
RS-15 20 Sep 13:30:40 13:41:41 74° 239° (WSW) 13:53:08 29.354 - 29.394 USB, Beacon 29.352 USB
PCSat 20 Sep 13:42:59 13:48:00 37° 315° (NW) 13:53:03 145.825 MHz
Oscar 16 20 Sep 13:45:52 13:50:59 60° 259° (W) 13:56:09 437.025 USB, Beacon 2401.1428
AO-Echo 20 Sep 13:51:28 13:56:12 80° 74° (ENE) 14:00:55 ?
Gurwin Techsat 1B 20 Sep 14:25:08 14:30:24 70° 72° (ENE) 14:35:43 435.225 FM
AO-7 20 Sep 14:28:23 14:35:29 33° 52° (NE) 14:42:33 29.400 - 29.500 MHz
ITAMSAT 1 20 Sep 14:31:25 14:36:28 54° 260° (W) 14:41:34 435.822 SSB
Uribyol 2 20 Sep 14:35:29 14:40:27 47° 261° (W) 14:45:28 436.500 FM
Oscar 19 20 Sep 14:48:03 14:51:44 19° 270° (W) 14:55:28 437.125 CW, 437.150 USB
TMSAT-1 20 Sep 15:01:32 15:06:49 79° 256° (WSW) 15:12:09 436.925 FM
Sapphire 20 Sep 15:01:57 15:05:26 17° 332° (NNW) 15:08:56 437.095 MHz 1200 baud AX-25 AFSK
Uosat F 20 Sep 15:03:16 15:07:16 25° 61° (ENE) 15:11:16 435.120 FM
AO-27 20 Sep 15:07:43 15:12:03 27° 266° (W) 15:16:26 436.795 MHz FM
JAS-1B 20 Sep 15:12:07 15:19:32 34° 264° (W) 15:25:57 435.800 - 435.900 CW/SSB
PCSat 20 Sep 15:30:31 15:33:03 13° 339° (NNW) 15:35:35 145.825 MHz
AO-Echo 20 Sep 15:33:24 15:35:36 13° 272° (W) 15:37:48 ?
RS-15 20 Sep 15:44:54 15:52:05 20° 261° (W) 15:59:28 29.354 - 29.394 USB, Beacon 29.352 USB
Gurwin Techsat 1B 20 Sep 16:07:20 16:10:55 18° 271° (W) 16:14:31 435.225 FM
AO-7 20 Sep 16:19:23 16:27:41 73° 254° (WSW) 16:36:00 29.400 - 29.500 MHz
JAS-2 20 Sep 16:31:39 16:35:46 25° 61° (ENE) 16:39:56 435.800 - 435.900 CW/SSB, 435.910 FM
Uosat F 20 Sep 16:40:54 16:45:46 51° 260° (W) 16:50:39 435.120 FM
TMSAT-1 20 Sep 16:45:52 16:47:37 12° 275° (W) 16:49:23 436.925 FM
MaSat-1 20 Sep 16:51:31 16:55:19 37° 51° (NE) 16:58:35 437.345 MHz
Saudisat 1A 20 Sep 16:57:25 17:01:31 39° 120° (ESE) 17:05:38 436.775 MHz
Hamsat 20 Sep 17:05:30 17:09:28 35° 68° (ENE) 17:13:25 145.90 MHz
OPAL 20 Sep 17:42:33 17:47:43 66° 105° (ESE) 17:52:47 ?
SO-67 20 Sep 17:51:23 17:53:06 13° 63° (ENE) 17:54:50 435.3500 MHz FM
KITSAT 1 20 Sep 17:52:15 17:57:10 18° 100° (E) 18:02:04 435.175 FM
HO-68 20 Sep 18:02:27 18:03:07 10° 37° (NE) 18:03:47 435.675 MHz FM
JAS-2 20 Sep 18:15:35 18:20:38 50° 261° (W) 18:25:43 435.800 - 435.900 CW/SSB, 435.910 FM
AO-7 20 Sep 18:17:11 18:21:56 16° 274° (W) 18:26:43 29.400 - 29.500 MHz
STRAND 1 20 Sep 18:26:28 18:29:31 16° 89° (E) 18:32:33 ?
MaSat-1 20 Sep 18:28:53 18:31:42 20° 255° (WSW) 18:34:14 437.345 MHz
Sapphire 20 Sep 18:34:10 18:37:17 15° 25° (NNE) 18:40:23 437.095 MHz 1200 baud AX-25 AFSK
Saudisat 1A 20 Sep 18:37:08 18:41:09 34° 319° (NW) 18:45:13 436.775 MHz
Hamsat 20 Sep 18:41:47 18:45:29 27° 266° (W) 18:49:11 145.90 MHz
PCSat 20 Sep 19:00:50 19:04:49 20° 32° (NNE) 19:08:46 145.825 MHz
OPAL 20 Sep 19:22:16 19:26:08 22° 304° (WNW) 19:29:58 ?
SO-67 20 Sep 19:22:23 19:25:45 49° 260° (W) 19:29:08 435.3500 MHz FM
HO-68 20 Sep 19:42:26 19:48:54 39° 60° (ENE) 19:55:23 435.675 MHz FM
KITSAT 1 20 Sep 19:43:10 19:51:14 75° 121° (ESE) 19:59:19 435.175 FM
STRAND 1 20 Sep 20:04:09 20:09:19 78° 287° (WNW) 20:14:27 ?
Saudisat 1A 20 Sep 20:20:25 20:22:03 12° 342° (NNW) 20:23:41 436.775 MHz
